Regional Weather Roundup
Issued by NWS

Home | Current Version | Previous Version | Graphics & Text | Print | Product List | Glossary On
Versions: 1 2 3 4 5 6 7 8 9 10 11 12 13 14 15 16 17 18 19 20 21 22 23 24 25 26 27 28 29 30 31 32 33 34 35 36 37 38 39 40 41 42 43 44 45 46 47 48 49 50
000
ASUS44 KMEG 261500
RWRTN
TENNESSEE HOURLY STATE WEATHER ROUNDUP
NATIONAL WEATHER SERVICE MEMPHIS TN
1000 AM CDT SAT JUL 26 2014

TNZ002-004-019-021-049-052-054-088>092-261600-
WEST TENNESSEE

CITY           SKY/WX    TMP DP  RH WIND       PRES   REMARKS
MEMPHIS INTL   MOSUNNY   85  73  67 SW8G18    30.03S HX  91
NWS MEMPHIS      N/A     83 N/A N/A MISG        N/A
JACKSON        SUNNY     81  71  71 SW10      30.04R
DYERSBURG      SUNNY     82  66  57 SW9       30.02S
UNION CITY     SUNNY     81  72  74 S7        30.00F
PARIS          PTSUNNY   77  68  73 SW7       30.04S
LEXINGTON      SUNNY     81  70  69 VRB6      30.04S
SAVANNAH       SUNNY     79  72  78 SW6       30.06S
$$

TNZ008-025-027-028-033-062-065-066-261600-
NORTH MIDDLE TENNESSEE

CITY           SKY/WX    TMP DP  RH WIND       PRES   REMARKS
NASHVILLE      MOSUNNY   82  65  56 VRB5      30.06S
CLARKSVILLE    PTSUNNY   82  66  58 S9        30.02F
COOKEVILLE     SUNNY     81  68  65 SW6       30.07S
CROSSVILLE     SUNNY     79  63  57 W8        30.11F
$$

TNZ061-075-076-078-094-096-097-261600-
SOUTH MIDDLE TENNESSEE

CITY           SKY/WX    TMP DP  RH WIND       PRES   REMARKS
FAYETTEVILLE   SUNNY     77  66  69 W7G110    30.08S
TULLAHOMA      SUNNY     81  64  57 SW6       30.09S
WINCHESTER     SUNNY     81  66  61 VRB3      30.08S
MCMINNVILLE    SUNNY     81  70  69 W8        30.08S
COLUMBIA       SUNNY     81  70  69 VRB5      30.05S
SHELBYVILLE    SUNNY     82  70  65 VRB3      30.08S
$$

TNZ017-018-042-046-047-261600-
NORTHEAST TENNESSEE

CITY           SKY/WX    TMP DP  RH WIND       PRES   REMARKS
TRI CITIES     MOSUNNY   77  63  61 VRB5      30.09F
ELIZABETHTON   SUNNY     79  63  57 W6        30.10F
$$

TNZ012-013-036-069-073-074-261600-
CENTRAL EAST TENNESSEE

CITY           SKY/WX    TMP DP  RH WIND       PRES   REMARKS
KNOXVILLE      MOSUNNY   77  65  66 SW6       30.07F
OAK RIDGE      SUNNY     77  62  59 VRB5      30.08F
GATLINBURG     SUNNY     79  63  57 W5        30.07S
$$

TNZ083-085-099-261600-
SOUTHEAST TENNESSEE

CITY           SKY/WX    TMP DP  RH WIND       PRES   REMARKS
CHATTANOOGA    MOSUNNY   81  62  52 CALM      30.07S
$$

SKY/WX REPORTED AS FAIR MEANS FEW OR NO CLOUDS BELOW
12 THOUSAND FEET.




USA.gov is the U.S. government's official web portal to all federal, state and local government web resources and services.